Location: Helsinki
(60.1699°N, 24.9384°E)
Time: 23:48:20
(UTC+02:00)

A-11 Canister half - Pass Details

Date: 27 October 2020
Orbit: 1516 x 1684 km, 47.2° (Epoch: 26 November)

Event Time Altitude Azimuth Distance (km) Brightness Sun altitude
Rises 03:34:05 0° 278° (W) 4,854 - -29.3°
Reaches altitude 10° 03:38:36 10° 261° (W) 3,832 - -28.8°
Maximum altitude 03:44:16 17° 224° (SW) 3,231 - -28.1°
Drops below altitude 10° 03:49:50 10° 188° (S) 3,745 - -27.5°
Exits shadow 03:50:47 - 183° (S) 3,925 10.9 -27.4°
Sets 03:54:12 0° 170° (S) 4,698 11.4 -27.0°
